TimeEST,TemperatureF,Dew PointF,Humidity,Sea Level PressureIn,VisibilityMPH,Wind Direction,Wind SpeedMPH,Gust SpeedMPH,PrecipitationIn,Events,Conditions,WindDirDegrees,DateUTC
12:15 AM,35.8,32.0,86,30.29,10.0,Calm,Calm,-,N/A,,Clear,0,2012-12-01 05:15:00
12:35 AM,37.0,32.4,83,30.30,10.0,Calm,Calm,-,N/A,,Clear,0,2012-12-01 05:35:00
12:55 AM,36.0,32.0,86,30.29,10.0,Calm,Calm,-,N/A,,Clear,0,2012-12-01 05:55:00
1:15 AM,35.2,31.6,87,30.29,10.0,Calm,Calm,-,N/A,,Scattered Clouds,0,2012-12-01 06:15:00
1:35 AM,35.6,32.0,87,30.29,10.0,Calm,Calm,-,N/A,,Mostly Cloudy,0,2012-12-01 06:35:00
1:55 AM,36.1,32.0,85,30.29,10.0,Calm,Calm,-,N/A,,Scattered Clouds,0,2012-12-01 06:55:00
2:15 AM,36.5,32.0,84,30.29,10.0,Calm,Calm,-,N/A,,Scattered Clouds,0,2012-12-01 07:15:00
2:35 AM,36.7,32.2,84,30.29,10.0,Calm,Calm,-,N/A,,Scattered Clouds,0,2012-12-01 07:35:00
2:55 AM,35.8,32.0,86,30.29,10.0,Calm,Calm,-,N/A,,Scattered Clouds,0,2012-12-01 07:55:00
3:15 AM,35.2,31.8,87,30.30,10.0,NW,4.6,-,N/A,,Clear,310,2012-12-01 08:15:00
3:55 AM,33.8,30.7,89,30.29,10.0,Calm,Calm,-,N/A,,Clear,0,2012-12-01 08:55:00
4:35 AM,35.4,32.2,88,30.30,10.0,Calm,Calm,-,N/A,,Clear,0,2012-12-01 09:35:00
5:15 AM,34.0,31.1,89,30.31,7.0,Calm,Calm,-,N/A,,Clear,0,2012-12-01 10:15:00
5:35 AM,33.1,30.4,90,30.31,7.0,Calm,Calm,-,N/A,,Clear,0,2012-12-01 10:35:00
5:55 AM,32.0,29.3,90,30.32,7.0,Calm,Calm,-,N/A,,Clear,0,2012-12-01 10:55:00
6:15 AM,32.0,29.1,89,30.32,10.0,Calm,Calm,-,N/A,,Clear,0,2012-12-01 11:15:00
6:35 AM,32.0,28.9,88,30.33,10.0,Calm,Calm,-,N/A,,Clear,0,2012-12-01 11:35:00
7:35 AM,32.5,29.8,90,30.35,7.0,Calm,Calm,-,N/A,,Clear,0,2012-12-01 12:35:00
7:55 AM,34.0,31.6,91,30.36,5.0,Calm,Calm,-,N/A,,Clear,0,2012-12-01 12:55:00
8:15 AM,36.7,33.4,88,30.36,7.0,Calm,Calm,-,N/A,,Clear,0,2012-12-01 13:15:00
8:35 AM,38.5,34.9,87,30.37,10.0,Calm,Calm,-,N/A,,Clear,0,2012-12-01 13:35:00
9:15 AM,45.5,38.1,75,30.38,10.0,Calm,Calm,-,N/A,,Clear,0,2012-12-01 14:15:00
9:35 AM,46.8,38.3,72,30.38,10.0,Calm,Calm,-,N/A,,Clear,0,2012-12-01 14:35:00
10:15 AM,50.9,39.2,64,30.39,10.0,Calm,Calm,-,N/A,,Clear,0,2012-12-01 15:15:00
10:35 AM,53.2,39.7,60,30.39,10.0,Calm,Calm,-,N/A,,Clear,0,2012-12-01 15:35:00
10:55 AM,55.0,40.1,57,30.38,10.0,Calm,Calm,-,N/A,,Clear,0,2012-12-01 15:55:00
11:15 AM,57.2,40.8,54,30.37,10.0,SSW,3.5,-,N/A,,Clear,210,2012-12-01 16:15:00
11:35 AM,57.9,40.3,52,30.37,10.0,SSW,4.6,-,N/A,,Clear,210,2012-12-01 16:35:00
11:55 AM,60.3,41.4,50,30.36,10.0,South,4.6,-,N/A,,Clear,170,2012-12-01 16:55:00
12:15 PM,60.3,41.2,49,30.35,10.0,SSE,6.9,-,N/A,,Clear,160,2012-12-01 17:15:00
12:35 PM,61.2,41.5,48,30.34,10.0,SW,5.8,-,N/A,,Clear,230,2012-12-01 17:35:00
12:55 PM,61.5,42.1,49,30.33,10.0,SSW,4.6,-,N/A,,Clear,200,2012-12-01 17:55:00
1:15 PM,61.7,41.7,48,30.33,10.0,West,3.5,-,N/A,,Clear,260,2012-12-01 18:15:00
1:35 PM,62.2,42.1,48,30.33,10.0,Calm,Calm,-,N/A,,Clear,0,2012-12-01 18:35:00
1:55 PM,62.2,41.4,46,30.32,10.0,SW,4.6,-,N/A,,Clear,220,2012-12-01 18:55:00
2:15 PM,62.2,41.2,46,30.32,10.0,SSW,3.5,-,N/A,,Clear,210,2012-12-01 19:15:00
2:35 PM,62.8,40.8,45,30.31,10.0,SW,3.5,-,N/A,,Clear,230,2012-12-01 19:35:00
2:55 PM,62.6,40.6,45,30.31,10.0,SW,3.5,-,N/A,,Clear,220,2012-12-01 19:55:00
3:15 PM,62.6,40.3,44,30.31,10.0,South,3.5,-,N/A,,Clear,180,2012-12-01 20:15:00
3:35 PM,62.6,40.1,44,30.31,10.0,South,5.8,-,N/A,,Clear,190,2012-12-01 20:35:00
3:55 PM,62.2,40.1,44,30.31,10.0,SSE,3.5,-,N/A,,Clear,160,2012-12-01 20:55:00
4:15 PM,61.7,39.9,45,30.32,10.0,South,3.5,-,N/A,,Clear,180,2012-12-01 21:15:00
4:35 PM,61.0,40.3,46,30.32,10.0,SSE,4.6,-,N/A,,Clear,150,2012-12-01 21:35:00
5:15 PM,58.5,40.5,51,30.32,10.0,Calm,Calm,-,N/A,,Clear,0,2012-12-01 22:15:00
5:35 PM,54.9,40.6,59,30.32,10.0,Calm,Calm,-,N/A,,Clear,0,2012-12-01 22:35:00
5:55 PM,53.6,40.5,61,30.32,10.0,Calm,Calm,-,N/A,,Clear,0,2012-12-01 22:55:00
6:15 PM,51.4,40.1,65,30.33,10.0,Calm,Calm,-,N/A,,Clear,0,2012-12-01 23:15:00
6:35 PM,49.1,39.7,70,30.33,10.0,Calm,Calm,-,N/A,,Clear,0,2012-12-01 23:35:00
6:55 PM,48.4,39.4,71,30.34,10.0,Calm,Calm,-,N/A,,Clear,0,2012-12-01 23:55:00
7:15 PM,47.1,39.4,74,30.33,10.0,Calm,Calm,-,N/A,,Clear,0,2012-12-02 00:15:00
7:35 PM,45.9,39.0,77,30.33,10.0,Calm,Calm,-,N/A,,Clear,0,2012-12-02 00:35:00
7:55 PM,45.7,39.2,78,30.34,10.0,Calm,Calm,-,N/A,,Clear,0,2012-12-02 00:55:00
8:15 PM,45.0,38.5,78,30.33,10.0,Calm,Calm,-,N/A,,Clear,0,2012-12-02 01:15:00
8:35 PM,46.6,39.4,76,30.34,10.0,Calm,Calm,-,N/A,,Clear,0,2012-12-02 01:35:00
8:55 PM,45.7,39.0,78,30.34,10.0,Calm,Calm,-,N/A,,Clear,0,2012-12-02 01:55:00
9:15 PM,48.2,39.7,73,30.34,10.0,Calm,Calm,-,N/A,,Clear,0,2012-12-02 02:15:00
9:35 PM,45.7,38.8,77,30.34,10.0,Calm,Calm,-,N/A,,Clear,0,2012-12-02 02:35:00
9:55 PM,44.4,39.0,81,30.34,10.0,Calm,Calm,-,N/A,,Clear,0,2012-12-02 02:55:00
10:15 PM,45.7,39.6,79,30.34,10.0,Calm,Calm,-,N/A,,Clear,0,2012-12-02 03:15:00
10:35 PM,44.8,39.2,81,30.34,10.0,Calm,Calm,-,N/A,,Clear,0,2012-12-02 03:35:00
10:55 PM,42.3,37.4,83,30.34,10.0,Calm,Calm,-,N/A,,Clear,0,2012-12-02 03:55:00
11:15 PM,42.8,38.1,84,30.34,10.0,Calm,Calm,-,N/A,,Clear,0,2012-12-02 04:15:00
11:35 PM,42.6,37.9,83,30.34,10.0,Calm,Calm,-,N/A,,Clear,0,2012-12-02 04:35:00
11:55 PM,41.9,38.1,86,30.34,10.0,Calm,Calm,-,N/A,,Clear,0,2012-12-02 04:55:00